QPF
0.00 0.00 0.01 0.01 0.02 0.02 0.02 0.02 0.01 0.01 0.01 0.01 0.01 0.01 0.01 0.00 0.00 0.00 0.00 0.00 0.00 0.00 0.00 0.01 0.01 0.00 0.00 0.00 0.00 0.00 0.00 0.00 0.00 0.00 0.00 0.00 0.00 0.00 0.00 0.00 0.00 0.00 0.01
0.00 0.00 0.01 0.01 0.02 0.02 0.03 0.02 0.01 0.01 0.01 0.00 0.01 0.01 0.00 0.00 0.00 0.00 0.00 0.00 0.00 0.00 0.00 0.00 0.00 0.00 0.00 0.00 0.00 0.00 0.00 0.00 0.00 0.00 0.00 0.00 0.00 0.00 0.00 0.00 0.00 0.00 0.00
0.00 0.00 0.01 0.01 0.02 0.03 0.03 0.01 0.01 0.00 0.00 0.00 0.00 0.00 0.00 0.00 0.00 0.00 0.00 0.00 0.00 0.00 0.00 0.00 0.00 0.00 0.00 0.00 0.00 0.00 0.00 0.00 0.00 0.00 0.00 0.00 0.00 0.00 0.00 0.00 0.00 0.00 0.00
0.00 0.00 0.00 0.01 0.02 0.03 0.03 0.01 0.01 0.00 0.00 0.00 0.00 0.00 0.00 0.00 0.00 0.00 0.00 0.00 0.00 0.00 0.00 0.00 0.00 0.00 0.00 0.00 0.00 0.00 0.00 0.00 0.00 0.00 0.00 0.00 0.00 0.00 0.00 0.00 0.00 0.00 0.00
0.00 0.00 0.00 0.01 0.02 0.03 0.02 0.02 0.01 0.01 0.00 0.00 0.00 0.00 0.00 0.00 0.00 0.00 0.00 0.00 0.00 0.00 0.00 0.00 0.00 0.00 0.00 0.00 0.00 0.00 0.00 0.00 0.00 0.00 0.00 0.00 0.00 0.00 0.00 0.00 0.00 0.00 0.00
0.00 0.00 0.00 0.01 0.02 0.02 0.02 0.02 0.02 0.01 0.00 0.00 0.00 0.00 0.00 0.00 0.00 0.00 0.00 0.00 0.00 0.00 0.00 0.00 0.00 0.00 0.00 0.00 0.00 0.00 0.00 0.00 0.00 0.00 0.00 0.00 0.00 0.00 0.00 0.00 0.00 0.00 0.00
0.00 0.00 0.00 0.01 0.02 0.02 0.02 0.02 0.02 0.01 0.00 0.00 0.00 0.00 0.00 0.00 0.00 0.00 0.00 0.00 0.00 0.00 0.00 0.00 0.00 0.00 0.00 0.00 0.00 0.00 0.00 0.00 0.00 0.00 0.00 0.00 0.00 0.00 0.00 0.00 0.00 0.00 0.01
0.00 0.00 0.00 0.02 0.02 0.02 0.01 0.01 0.02 0.01 0.01 0.00 0.00 0.00 0.00 0.00 0.00 0.00 0.00 0.00 0.00 0.00 0.00 0.00 0.00 0.00 0.00 0.00 0.00 0.00 0.00 0.00 0.00 0.00 0.00 0.00 0.00 0.00 0.00 0.00 0.00 0.00 0.00
0.00 0.00 0.00 0.01 0.02 0.01 0.01 0.01 0.01 0.01 0.01 0.00 0.00 0.00 0.00 0.00 0.00 0.00 0.00 0.00 0.00 0.00 0.00 0.00 0.00 0.00 0.00 0.00 0.00 0.00 0.00 0.00 0.00 0.00 0.00 0.00 0.00 0.00 0.00 0.00 0.00 0.00 0.00
0.00 0.00 0.00 0.01 0.01 0.01 0.01 0.01 0.01 0.01 0.01 0.01 0.00 0.00 0.00 0.00 0.00 0.00 0.00 0.00 0.00 0.00 0.00 0.00 0.00 0.00 0.00 0.00 0.00 0.00 0.00 0.00 0.00 0.00 0.00 0.00 0.00 0.00 0.00 0.00 0.00 0.00 0.00
0.00 0.00 0.00 0.00 0.01 0.01 0.01 0.00 0.01 0.01 0.01 0.00 0.00 0.00 0.00 0.00 0.00 0.00 0.00 0.00 0.00 0.00 0.00 0.00 0.00 0.00 0.00 0.00 0.00 0.00 0.00 0.00 0.00 0.00 0.00 0.00 0.00 0.00 0.00 0.00 0.00 0.00 0.00
0.00 0.00 0.00 0.00 0.00 0.00 0.00 0.00 0.01 0.01 0.00 0.00 0.00 0.00 0.00 0.00 0.00 0.00 0.00 0.00 0.00 0.00 0.00 0.00 0.00 0.00 0.00 0.00 0.00 0.00 0.00 0.00 0.00 0.00 0.00 0.00 0.00 0.00 0.00 0.00 0.00 0.00 0.00
0.00 0.00 0.00 0.00 0.00 0.00 0.00 0.00 0.00 0.00 0.00 0.00 0.00 0.00 0.00 0.00 0.00 0.00 0.00 0.00 0.00 0.00 0.00 0.00 0.00 0.00 0.00 0.00 0.00 0.00 0.00 0.00 0.00 0.00 0.00 0.00 0.00 0.00 0.00 0.00 0.00 0.00 0.00
0.00 0.00 0.00 0.00 0.00 0.00 0.00 0.00 0.00 0.00 0.00 0.00 0.00 0.00 0.00 0.00 0.00 0.00 0.00 0.00 0.00 0.00 0.00 0.00 0.00 0.00 0.00 0.00 0.00 0.00 0.00 0.00 0.00 0.00 0.00 0.00 0.00 0.00 0.00 0.00 0.00 0.00 0.00
0.00 0.00 0.00 0.00 0.00 0.00 0.00 0.00 0.00 0.00 0.00 0.00 0.00 0.00 0.00 0.00 0.00 0.00 0.00 0.00 0.00 0.00 0.00 0.00 0.00 0.00 0.00 0.00 0.00 0.00 0.00 0.00 0.00 0.00 0.00 0.00 0.00 0.00 0.00 0.00 0.00 0.00 0.00
0.00 0.00 0.00 0.00 0.00 0.00 0.00 0.00 0.00 0.00 0.00 0.00 0.00 0.00 0.00 0.00 0.00 0.00 0.00 0.00 0.00 0.00 0.00 0.00 0.00 0.00 0.00 0.00 0.00 0.00 0.00 0.00 0.00 0.00 0.00 0.00 0.00 0.00 0.00 0.00 0.00 0.00 0.00
0.00 0.00 0.00 0.00 0.00 0.00 0.00 0.00 0.00 0.00 0.00 0.00 0.00 0.00 0.00 0.00 0.00 0.00 0.00 0.00 0.00 0.00 0.00 0.00 0.00 0.00 0.00 0.00 0.00 0.00 0.00 0.00 0.00 0.00 0.00 0.00 0.00 0.00 0.00 0.00 0.00 0.00 0.00
0.00 0.00 0.00 0.00 0.00 0.00 0.00 0.00 0.00 0.00 0.00 0.00 0.00 0.00 0.00 0.00 0.00 0.00 0.00 0.00 0.00 0.00 0.00 0.00 0.00 0.00 0.00 0.00 0.00 0.00 0.00 0.00 0.00 0.00 0.00 0.00 0.00 0.00 0.00 0.00 0.00 0.00 0.00
0.00 0.00 0.00 0.00 0.00 0.00 0.00 0.00 0.00 0.00 0.00 0.01 0.01 0.01 0.01 0.00 0.00 0.00 0.00 0.00 0.00 0.00 0.00 0.00 0.00 0.00 0.00 0.00 0.00 0.00 0.00 0.00 0.00 0.00 0.00 0.00 0.00 0.00 0.00 0.00 0.00 0.00 0.00
0.00 0.00 0.00 0.00 0.00 0.00 0.00 0.00 0.00 0.00 0.00 0.01 0.01 0.01 0.01 0.01 0.00 0.00 0.00 0.00 0.00 0.00 0.00 0.00 0.00 0.00 0.00 0.00 0.00 0.00 0.00 0.00 0.00 0.00 0.00 0.00 0.00 0.00 0.00 0.00 0.00 0.00 0.00
0.00 0.00 0.00 0.00 0.00 0.00 0.00 0.00 0.00 0.00 0.00 0.00 0.00 0.00 0.01 0.01 0.00 0.00 0.00 0.00 0.00 0.00 0.00 0.00 0.00 0.00 0.00 0.00 0.00 0.00 0.00 0.00 0.00 0.00 0.00 0.00 0.00 0.00 0.00 0.00 0.00 0.00 0.00
0.00 0.00 0.00 0.00 0.00 0.00 0.00 0.00 0.00 0.00 0.00 0.00 0.00 0.00 0.01 0.01 0.01 0.01 0.00 0.00 0.00 0.00 0.00 0.00 0.00 0.00 0.00 0.00 0.00 0.00 0.00 0.00 0.00 0.00 0.00 0.00 0.00 0.00 0.00 0.00 0.00 0.00 0.00
0.00 0.00 0.00 0.00 0.00 0.00 0.00 0.00 0.00 0.00 0.00 0.00 0.00 0.00 0.01 0.01 0.01 0.01 0.01 0.01 0.01 0.01 0.00 0.00 0.00 0.00 0.00 0.00 0.00 0.00 0.00 0.00 0.00 0.00 0.00 0.00 0.00 0.00 0.00 0.00 0.00 0.00 0.00
0.00 0.00 0.00 0.00 0.00 0.00 0.00 0.00 0.00 0.00 0.00 0.00 0.00 0.00 0.00 0.00 0.00 0.00 0.00 0.01 0.01 0.01 0.01 0.01 0.01 0.01 0.01 0.00 0.00 0.00 0.00 0.00 0.00 0.00 0.00 0.00 0.00 0.00 0.00 0.00 0.00 0.00 0.00
0.00 0.00 0.00 0.00 0.00 0.00 0.00 0.00 0.00 0.00 0.00 0.00 0.00 0.00 0.00 0.00 0.00 0.00 0.00 0.00 0.01 0.01 0.01 0.01 0.01 0.01 0.01 0.01 0.01 0.00 0.00 0.00 0.00 0.00 0.00 0.00 0.00 0.00 0.00 0.00 0.00 0.00 0.00
0.00 0.00 0.00 0.00 0.00 0.00 0.00 0.00 0.00 0.00 0.00 0.00 0.00 0.00 0.00 0.00 0.00 0.00 0.00 0.00 0.00 0.00 0.00 0.00 0.01 0.01 0.01 0.01 0.01 0.01 0.01 0.01 0.01 0.01 0.01 0.00 0.00 0.00 0.01 0.01 0.01 0.00 0.00
MSLP
1017.58 1017.68 1017.88 1018.16 1018.47 1018.78 1019.04 1019.23 1019.34 1019.38 1019.36 1019.33 1019.31 1019.31 1019.34 1019.38 1019.41 1019.42 1019.39 1019.30 1019.18 1019.05 1018.91 1018.80 1018.73 1018.70 1018.70 1018.70 1018.70 1018.66 1018.58 1018.47 1018.32 1018.17 1018.02 1017.89 1017.79 1017.70 1017.62 1017.54 1017.45 1017.33 1017.19
1017.47 1017.62 1017.86 1018.17 1018.52 1018.86 1019.15 1019.37 1019.50 1019.55 1019.54 1019.51 1019.50 1019.51 1019.55 1019.62 1019.69 1019.73 1019.73 1019.67 1019.57 1019.45 1019.32 1019.22 1019.16 1019.13 1019.14 1019.14 1019.13 1019.08 1018.99 1018.85 1018.67 1018.49 1018.32 1018.17 1018.06 1017.98 1017.91 1017.85 1017.78 1017.68 1017.55
1017.38 1017.57 1017.85 1018.20 1018.58 1018.95 1019.28 1019.53 1019.69 1019.76 1019.77 1019.76 1019.75 1019.77 1019.83 1019.90 1019.98 1020.04 1020.05 1020.01 1019.92 1019.81 1019.69 1019.60 1019.54 1019.52 1019.52 1019.52 1019.50 1019.43 1019.31 1019.15 1018.95 1018.75 1018.56 1018.40 1018.28 1018.19 1018.13 1018.07 1018.01 1017.93 1017.82
1017.29 1017.53 1017.85 1018.23 1018.64 1019.05 1019.42 1019.71 1019.90 1020.01 1020.05 1020.06 1020.06 1020.09 1020.14 1020.21 1020.28 1020.33 1020.34 1020.30 1020.22 1020.11 1020.01 1019.92 1019.87 1019.85 1019.85 1019.84 1019.80 1019.72 1019.59 1019.41 1019.20 1018.98 1018.78 1018.61 1018.48 1018.38 1018.31 1018.26 1018.19 1018.11 1018.01
1017.23 1017.50 1017.85 1018.26 1018.70 1019.15 1019.55 1019.88 1020.12 1020.27 1020.35 1020.38 1020.40 1020.42 1020.47 1020.52 1020.58 1020.61 1020.60 1020.55 1020.47 1020.37 1020.28 1020.20 1020.16 1020.14 1020.13 1020.12 1020.07 1019.98 1019.84 1019.66 1019.44 1019.22 1019.02 1018.85 1018.71 1018.60 1018.51 1018.43 1018.35 1018.26 1018.15
1017.21 1017.49 1017.85 1018.27 1018.74 1019.22 1019.65 1020.03 1020.31 1020.50 1020.62 1020.68 1020.71 1020.74 1020.77 1020.81 1020.84 1020.86 1020.84 1020.78 1020.70 1020.61 1020.52 1020.46 1020.42 1020.40 1020.39 1020.37 1020.32 1020.22 1020.08 1019.91 1019.70 1019.50 1019.30 1019.13 1018.98 1018.86 1018.75 1018.64 1018.53 1018.41 1018.29
1017.22 1017.51 1017.86 1018.28 1018.76 1019.25 1019.71 1020.12 1020.44 1020.67 1020.82 1020.91 1020.96 1021.00 1021.03 1021.06 1021.08 1021.08 1021.05 1021.00 1020.92 1020.84 1020.76 1020.70 1020.66 1020.65 1020.63 1020.60 1020.54 1020.45 1020.32 1020.15 1019.97 1019.79 1019.61 1019.45 1019.30 1019.16 1019.02 1018.88 1018.74 1018.59 1018.45
1017.28 1017.54 1017.87 1018.28 1018.75 1019.24 1019.71 1020.14 1020.48 1020.74 1020.92 1021.04 1021.11 1021.17 1021.22 1021.25 1021.28 1021.28 1021.25 1021.20 1021.13 1021.06 1020.99 1020.94 1020.90 1020.87 1020.85 1020.81 1020.74 1020.65 1020.52 1020.38 1020.22 1020.07 1019.92 1019.78 1019.64 1019.49 1019.33 1019.16 1018.99 1018.81 1018.65
1017.36 1017.58 1017.89 1018.27 1018.71 1019.19 1019.65 1020.07 1020.42 1020.70 1020.90 1021.05 1021.16 1021.24 1021.31 1021.37 1021.41 1021.43 1021.42 1021.39 1021.33 1021.27 1021.21 1021.15 1021.11 1021.07 1021.03 1020.97 1020.89 1020.79 1020.67 1020.55 1020.42 1020.30 1020.18 1020.06 1019.94 1019.80 1019.63 1019.45 1019.26 1019.07 1018.89
1017.43 1017.62 1017.90 1018.25 1018.66 1019.10 1019.54 1019.94 1020.29 1020.56 1020.78 1020.95 1021.09 1021.21 1021.32 1021.41 1021.49 1021.53 1021.55 1021.53 1021.49 1021.44 1021.38 1021.33 1021.27 1021.22 1021.16 1021.08 1020.99 1020.88 1020.77 1020.65 1020.54 1020.45 1020.36 1020.27 1020.17 1020.04 1019.89 1019.71 1019.52 1019.33 1019.16
1017.47 1017.64 1017.89 1018.22 1018.59 1019.00 1019.40 1019.76 1020.08 1020.34 1020.57 1020.75 1020.92 1021.08 1021.23 1021.37 1021.48 1021.56 1021.60 1021.60 1021.58 1021.54 1021.49 1021.43 1021.38 1021.31 1021.24 1021.15 1021.04 1020.92 1020.80 1020.69 1020.59 1020.51 1020.45 1020.38 1020.31 1020.21 1020.09 1019.93 1019.76 1019.59 1019.43
1017.43 1017.61 1017.85 1018.16 1018.51 1018.87 1019.22 1019.54 1019.83 1020.07 1020.29 1020.49 1020.68 1020.88 1021.07 1021.24 1021.39 1021.50 1021.56 1021.59 1021.58 1021.55 1021.51 1021.46 1021.41 1021.35 1021.27 1021.17 1021.06 1020.93 1020.81 1020.69 1020.59 1020.52 1020.46 1020.42 1020.38 1020.31 1020.21 1020.09 1019.95 1019.81 1019.68
1017.29 1017.50 1017.76 1018.07 1018.40 1018.73 1019.03 1019.31 1019.55 1019.77 1019.97 1020.17 1020.39 1020.61 1020.83 1021.04 1021.21 1021.35 1021.43 1021.47 1021.48 1021.46 1021.44 1021.41 1021.38 1021.33 1021.27 1021.18 1021.07 1020.94 1020.81 1020.68 1020.57 1020.50 1020.45 1020.42 1020.39 1020.35 1020.30 1020.22 1020.12 1020.01 1019.90
1017.05 1017.30 1017.60 1017.92 1018.24 1018.55 1018.82 1019.05 1019.26 1019.45 1019.64 1019.85 1020.07 1020.31 1020.55 1020.78 1020.97 1021.12 1021.22 1021.27 1021.30 1021.30 1021.30 1021.30 1021.30 1021.29 1021.26 1021.20 1021.10 1020.98 1020.84 1020.70 1020.58 1020.49 1020.44 1020.41 1020.40 1020.39 1020.37 1020.33 1020.26 1020.19 1020.11
1016.70 1017.01 1017.35 1017.70 1018.03 1018.32 1018.57 1018.78 1018.96 1019.13 1019.31 1019.51 1019.74 1019.99 1020.25 1020.48 1020.69 1020.84 1020.95 1021.02 1021.06 1021.09 1021.13 1021.17 1021.21 1021.25 1021.26 1021.23 1021.16 1021.05 1020.91 1020.77 1020.64 1020.54 1020.47 1020.45 1020.45 1020.46 1020.47 1020.46 1020.42 1020.37 1020.31
1016.27 1016.64 1017.03 1017.40 1017.74 1018.04 1018.28 1018.48 1018.65 1018.81 1018.98 1019.19 1019.42 1019.67 1019.93 1020.17 1020.38 1020.55 1020.67 1020.75 1020.81 1020.87 1020.94 1021.03 1021.12 1021.21 1021.26 1021.28 1021.24 1021.15 1021.02 1020.87 1020.73 1020.62 1020.55 1020.53 1020.54 1020.57 1020.61 1020.62 1020.62 1020.58 1020.51
1015.80 1016.21 1016.63 1017.02 1017.38 1017.68 1017.93 1018.14 1018.31 1018.48 1018.66 1018.87 1019.10 1019.36 1019.62 1019.86 1020.08 1020.25 1020.38 1020.48 1020.58 1020.67 1020.78 1020.90 1021.03 1021.16 1021.26 1021.30 1021.29 1021.22 1021.10 1020.96 1020.82 1020.71 1020.64 1020.63 1020.66 1020.71 1020.77 1020.82 1020.83 1020.80 1020.73
1015.34 1015.76 1016.18 1016.59 1016.96 1017.27 1017.53 1017.76 1017.95 1018.13 1018.32 1018.54 1018.78 1019.03 1019.29 1019.54 1019.77 1019.95 1020.11 1020.24 1020.36 1020.48 1020.62 1020.78 1020.94 1021.09 1021.20 1021.27 1021.27 1021.22 1021.11 1020.98 1020.85 1020.74 1020.69 1020.70 1020.75 1020.83 1020.92 1021.00 1021.03 1021.02 1020.94
1014.91 1015.31 1015.72 1016.12 1016.49 1016.82 1017.10 1017.34 1017.55 1017.76 1017.96 1018.18 1018.42 1018.68 1018.94 1019.20 1019.43 1019.64 1019.83 1019.99 1020.14 1020.30 1020.46 1020.63 1020.80 1020.95 1021.07 1021.13 1021.14 1021.08 1020.99 1020.87 1020.75 1020.67 1020.64 1020.68 1020.76 1020.88 1021.00 1021.11 1021.17 1021.17 1021.11
1014.54 1014.90 1015.27 1015.64 1016.00 1016.33 1016.63 1016.90 1017.13 1017.35 1017.57 1017.79 1018.02 1018.28 1018.54 1018.80 1019.05 1019.29 1019.51 1019.71 1019.90 1020.08 1020.26 1020.43 1020.59 1020.73 1020.82 1020.87 1020.86 1020.80 1020.71 1020.60 1020.51 1020.46 1020.46 1020.52 1020.63 1020.79 1020.95 1021.10 1021.20 1021.23 1021.18
1014.24 1014.53 1014.85 1015.19 1015.53 1015.85 1016.16 1016.43 1016.68 1016.91 1017.12 1017.34 1017.56 1017.80 1018.05 1018.32 1018.59 1018.86 1019.12 1019.36 1019.59 1019.80 1019.99 1020.15 1020.29 1020.40 1020.46 1020.48 1020.45 1020.38 1020.29 1020.20 1020.12 1020.09 1020.12 1020.21 1020.35 1020.53 1020.73 1020.91 1021.05 1021.13 1021.12
1014.01 1014.23 1014.49 1014.77 1015.08 1015.39 1015.69 1015.97 1016.22 1016.43 1016.63 1016.82 1017.01 1017.23 1017.46 1017.73 1018.02 1018.32 1018.62 1018.91 1019.18 1019.41 1019.61 1019.78 1019.89 1019.97 1020.00 1019.99 1019.94 1019.86 1019.78 1019.70 1019.64 1019.63 1019.67 1019.77 1019.93 1020.12 1020.34 1020.54 1020.72 1020.85 1020.90
1013.83 1013.98 1014.17 1014.40 1014.67 1014.95 1015.24 1015.50 1015.73 1015.93 1016.09 1016.24 1016.39 1016.57 1016.78 1017.04 1017.34 1017.67 1018.01 1018.34 1018.65 1018.91 1019.13 1019.29 1019.40 1019.45 1019.46 1019.44 1019.38 1019.31 1019.24 1019.17 1019.13 1019.13 1019.17 1019.26 1019.40 1019.58 1019.79 1020.01 1020.21 1020.38 1020.50
1013.67 1013.76 1013.88 1014.06 1014.29 1014.54 1014.80 1015.03 1015.24 1015.40 1015.52 1015.62 1015.72 1015.85 1016.03 1016.27 1016.57 1016.92 1017.29 1017.66 1018.01 1018.30 1018.54 1018.71 1018.82 1018.88 1018.89 1018.87 1018.84 1018.79 1018.74 1018.70 1018.67 1018.66 1018.69 1018.74 1018.85 1018.98 1019.16 1019.36 1019.57 1019.78 1019.96
1013.51 1013.54 1013.61 1013.74 1013.92 1014.14 1014.36 1014.57 1014.73 1014.85 1014.92 1014.97 1015.02 1015.11 1015.25 1015.47 1015.76 1016.12 1016.51 1016.91 1017.28 1017.60 1017.86 1018.06 1018.19 1018.27 1018.31 1018.33 1018.33 1018.33 1018.32 1018.30 1018.29 1018.27 1018.27 1018.28 1018.31 1018.39 1018.50 1018.66 1018.86 1019.08 1019.30
1013.32 1013.30 1013.33 1013.41 1013.55 1013.73 1013.92 1014.09 1014.22 1014.30 1014.33 1014.33 1014.34 1014.38 1014.49 1014.68 1014.96 1015.31 1015.71 1016.11 1016.50 1016.85 1017.13 1017.35 1017.51 1017.63 1017.72 1017.79 1017.86 1017.91 1017.96 1017.99 1017.99 1017.97 1017.93 1017.88 1017.85 1017.84 1017.88 1017.97 1018.13 1018.35 1018.59
Thickness
5741 5738 5731 5729 5726 5724 5722 5720 5719 5717 5716 5715 5714 5712 5711 5710 5709 5708 5707 5707 5706 5705 5705 5704 5704 5703 5702 5702 5701 5700 5700 5699 5698 5698 5698 5699 5699 5699 5698 5698 5700 5699 5698
5744 5738 5730 5727 5725 5722 5720 5718 5716 5714 5713 5711 5710 5709 5707 5706 5705 5704 5703 5702 5701 5700 5699 5698 5697 5697 5696 5695 5694 5693 5693 5692 5691 5691 5691 5692 5691 5691 5691 5691 5691 5691 5690
5742 5736 5730 5726 5723 5720 5718 5715 5713 5711 5709 5708 5706 5705 5703 5702 5700 5699 5698 5696 5695 5694 5693 5692 5691 5690 5689 5689 5687 5686 5686 5684 5684 5684 5685 5686 5685 5684 5684 5683 5683 5683 5683
5740 5735 5730 5724 5721 5718 5715 5713 5710 5708 5706 5704 5702 5700 5699 5697 5696 5694 5693 5691 5690 5688 5687 5686 5685 5684 5683 5682 5681 5680 5678 5677 5677 5678 5680 5679 5678 5676 5676 5676 5676 5676 5675
5737 5733 5728 5722 5719 5716 5713 5710 5708 5705 5703 5701 5699 5697 5695 5693 5691 5689 5687 5685 5684 5682 5681 5680 5679 5677 5676 5675 5674 5673 5671 5670 5670 5672 5672 5671 5670 5669 5669 5668 5668 5668 5668
5736 5732 5726 5720 5717 5713 5710 5708 5705 5702 5699 5697 5695 5693 5690 5688 5686 5684 5682 5680 5678 5677 5675 5674 5672 5671 5670 5669 5667 5666 5665 5664 5666 5665 5664 5664 5663 5662 5662 5661 5661 5661 5661
5735 5730 5725 5718 5714 5711 5708 5705 5702 5699 5696 5693 5691 5688 5686 5684 5681 5679 5676 5674 5673 5671 5669 5668 5666 5665 5664 5662 5661 5659 5658 5657 5659 5658 5657 5656 5655 5654 5655 5654 5654 5654 5654
5733 5728 5723 5715 5712 5709 5705 5702 5699 5696 5693 5690 5687 5685 5682 5679 5677 5674 5672 5670 5668 5666 5664 5662 5661 5659 5658 5656 5655 5653 5652 5651 5652 5652 5651 5650 5647 5647 5648 5647 5647 5647 5647
5731 5726 5722 5716 5711 5706 5703 5700 5696 5693 5690 5687 5684 5681 5678 5675 5672 5670 5668 5665 5663 5661 5659 5657 5655 5653 5652 5650 5649 5647 5645 5645 5647 5646 5644 5643 5640 5641 5641 5640 5640 5639 5639
5728 5725 5721 5717 5712 5707 5702 5698 5694 5690 5687 5683 5680 5677 5673 5670 5668 5665 5663 5660 5658 5656 5653 5651 5649 5648 5646 5644 5642 5641 5640 5640 5641 5639 5638 5636 5634 5634 5634 5633 5632 5632 5631
5724 5723 5720 5716 5712 5707 5703 5697 5692 5687 5684 5680 5677 5673 5670 5669 5666 5662 5659 5655 5653 5651 5648 5646 5644 5642 5640 5639 5637 5635 5635 5636 5635 5633 5631 5628 5627 5627 5627 5626 5625 5624 5624
5723 5722 5719 5715 5711 5706 5701 5696 5692 5687 5683 5680 5677 5672 5669 5666 5663 5659 5654 5651 5648 5646 5643 5641 5639 5637 5636 5636 5633 5631 5632 5630 5629 5627 5624 5621 5621 5620 5620 5619 5618 5617 5616
5726 5721 5718 5714 5709 5705 5700 5696 5692 5687 5683 5679 5676 5671 5667 5663 5659 5655 5652 5648 5645 5642 5641 5637 5636 5634 5633 5630 5629 5628 5626 5624 5623 5621 5618 5615 5614 5613 5613 5612 5610 5609 5608
5725 5721 5717 5713 5708 5704 5699 5695 5691 5686 5682 5678 5673 5669 5665 5661 5657 5653 5650 5646 5643 5640 5637 5634 5632 5630 5627 5625 5624 5622 5620 5618 5616 5614 5611 5608 5607 5606 5605 5604 5603 5601 5600
5725 5721 5717 5712 5707 5702 5698 5693 5689 5685 5680 5676 5670 5666 5662 5658 5655 5650 5647 5642 5639 5636 5633 5630 5628 5625 5623 5621 5618 5616 5614 5612 5610 5608 5605 5601 5599 5598 5597 5596 5595 5593 5592
5726 5722 5717 5711 5706 5701 5696 5692 5688 5684 5678 5674 5668 5664 5659 5655 5651 5647 5643 5639 5636 5632 5629 5625 5623 5620 5618 5615 5613 5610 5608 5607 5604 5602 5599 5595 5592 5591 5589 5588 5586 5585 5584
5728 5723 5717 5711 5705 5700 5695 5691 5686 5682 5677 5672 5667 5662 5657 5652 5648 5644 5640 5636 5632 5628 5624 5621 5618 5615 5612 5610 5608 5605 5603 5600 5598 5595 5592 5590 5587 5583 5581 5579 5578 5576 5575
5728 5722 5717 5710 5704 5700 5694 5689 5685 5680 5675 5670 5665 5660 5655 5650 5645 5640 5637 5633 5628 5624 5620 5616 5613 5611 5608 5605 5603 5600 5597 5594 5591 5589 5586 5583 5580 5577 5574 5571 5569 5567 5566
5728 5723 5716 5710 5704 5699 5693 5688 5683 5678 5673 5668 5663 5658 5653 5647 5642 5637 5633 5629 5624 5619 5616 5612 5609 5606 5604 5600 5597 5594 5592 5589 5586 5583 5580 5577 5573 5570 5567 5563 5560 5558 5556
5726 5722 5716 5709 5704 5698 5691 5685 5680 5675 5671 5666 5661 5656 5651 5645 5640 5635 5630 5626 5621 5616 5612 5608 5605 5600 5598 5594 5591 5588 5586 5584 5581 5578 5574 5570 5566 5563 5560 5557 5554 5551 5548
5723 5719 5715 5709 5703 5696 5690 5683 5678 5673 5669 5664 5659 5655 5649 5644 5638 5633 5628 5623 5618 5614 5610 5605 5601 5596 5592 5588 5585 5585 5583 5579 5577 5572 5568 5565 5561 5557 5553 5549 5547 5544 5541
5722 5717 5713 5708 5702 5696 5690 5684 5679 5673 5667 5663 5657 5652 5647 5642 5637 5631 5626 5621 5616 5611 5606 5601 5596 5592 5588 5582 5581 5580 5581 5579 5573 5567 5563 5558 5555 5551 5547 5543 5539 5536 5533
5719 5716 5711 5707 5701 5695 5689 5681 5674 5668 5662 5658 5654 5650 5645 5640 5635 5630 5624 5619 5614 5608 5604 5598 5593 5587 5584 5579 5574 5572 5571 5575 5572 5565 5559 5553 5549 5545 5541 5536 5532 5528 5525
5717 5713 5708 5704 5699 5693 5686 5680 5674 5669 5664 5661 5656 5650 5644 5639 5633 5628 5622 5617 5611 5606 5601 5595 5589 5584 5579 5575 5568 5563 5562 5561 5557 5560 5556 5549 5544 5539 5535 5530 5525 5521 5517
5712 5708 5704 5700 5695 5690 5684 5679 5673 5669 5665 5660 5654 5648 5643 5637 5631 5626 5620 5614 5609 5603 5598 5592 5586 5581 5575 5571 5566 5560 5554 5549 5546 5545 5548 5546 5539 5533 5528 5523 5519 5514 5510
5706 5702 5699 5695 5691 5687 5681 5677 5672 5667 5663 5657 5651 5646 5640 5635 5629 5623 5617 5611 5606 5600 5595 5589 5583 5577 5572 5567 5562 5556 5551 5546 5542 5537 5537 5537 5534 5530 5522 5516 5511 5507 5503